Theta_e
315 315 315 316 316 316 316 316 317 316 316 316 313 310 308 308 307 306 306 306 307 307 307 307 307 307 307 308 308 309 310 311 315 317 319 322 317 317 316 312 313 311 311 312 311 313 313 314 314 315 316 317 321 322 319 321 328 333 335 327 324 327 319 316 321 322 322 318 316 316 317 319 316 316 315 314 316 316 317 319 319 320 324 331 332 330 331 332
316 315 315 315 315 315 315 316 316 316 316 316 313 311 309 308 307 306 306 306 307 308 307 307 307 307 307 308 308 309 311 312 316 319 321 320 315 313 314 312 313 312 311 312 313 315 314 314 313 314 319 319 320 321 321 323 324 329 332 325 326 327 316 315 318 318 320 317 316 316 316 318 317 316 315 314 315 317 317 317 321 323 324 329 331 329 332 331
316 315 314 314 315 315 315 315 315 316 316 315 314 312 309 307 306 306 306 307 307 308 308 308 307 307 307 308 309 310 313 316 319 321 320 317 314 313 314 314 315 313 312 313 316 316 314 315 313 314 319 317 318 321 323 324 319 326 335 327 322 320 316 317 317 317 318 317 316 315 315 317 316 316 314 315 316 316 319 317 320 325 325 329 330 328 330 329
316 315 314 314 315 315 314 314 314 315 315 314 314 313 309 307 306 306 307 307 307 307 307 308 307 307 307 308 310 311 315 319 322 322 317 314 314 314 315 315 315 314 313 314 315 315 315 314 312 314 317 317 319 320 321 322 318 321 328 325 319 318 319 317 316 318 318 316 317 317 317 316 315 315 315 316 316 315 318 317 319 324 324 327 328 327 328 329
316 315 314 314 314 314 314 313 314 314 314 314 314 312 310 308 306 306 307 307 307 307 307 307 307 307 307 308 310 314 316 314 317 318 314 313 314 314 315 315 316 315 314 314 315 314 314 314 313 316 317 317 319 317 317 319 319 318 318 319 318 318 320 317 316 318 317 317 318 318 317 316 315 316 317 316 317 318 317 316 318 320 319 324 328 326 326 327
316 315 313 313 313 314 313 313 313 313 313 314 314 313 310 308 307 306 306 307 307 307 307 307 308 306 308 310 310 315 317 312 315 317 313 313 314 315 316 316 316 316 315 315 315 315 315 315 314 317 318 317 318 317 316 316 319 320 315 317 319 319 319 316 316 318 319 319 318 317 316 316 316 316 317 316 318 319 318 320 322 319 316 319 324 325 326 327
316 315 313 313 313 313 313 312 312 313 313 313 314 313 310 309 308 306 306 307 307 307 307 307 307 306 309 311 311 316 320 317 317 316 313 313 314 315 315 315 315 316 316 316 316 316 317 317 315 318 318 317 317 316 317 317 319 321 316 316 318 318 318 316 316 317 320 320 317 317 316 316 318 316 316 317 318 319 317 319 321 317 313 316 323 325 324 326
316 315 313 312 313 312 312 312 312 312 312 313 313 312 310 309 308 307 306 307 307 307 307 307 307 307 309 312 316 320 319 318 317 314 313 313 314 316 316 316 315 316 317 316 316 316 316 317 316 317 317 316 317 317 317 316 317 320 317 316 317 316 316 316 317 318 319 318 316 318 317 317 317 316 317 318 319 320 316 316 319 317 314 317 324 326 323 324
316 315 314 312 312 312 312 312 312 312 312 312 312 311 310 309 308 307 307 307 307 307 307 307 307 308 309 314 321 320 318 318 316 313 312 314 315 316 317 316 316 316 317 316 316 316 317 318 317 317 317 317 317 318 319 317 316 318 318 317 316 315 315 315 317 317 318 317 317 318 318 317 316 316 318 320 321 319 317 319 322 322 321 320 323 323 320 322
316 315 314 312 311 311 311 311 311 312 312 312 311 311 310 309 308 307 306 307 307 307 307 307 308 310 310 314 317 315 319 319 314 312 312 313 315 316 316 315 316 318 316 316 317 317 319 319 318 318 318 318 318 318 320 319 317 317 318 318 318 316 316 317 317 316 317 317 317 317 318 318 317 316 318 321 321 317 318 321 319 322 327 322 321 321 317 319
316 315 314 313 312 311 310 310 311 312 312 311 311 310 310 308 307 306 306 307 307 307 307 308 309 311 313 315 316 314 318 318 313 313 312 312 315 316 315 315 317 318 317 317 316 317 318 317 317 318 317 316 318 319 319 318 317 318 318 318 317 317 316 316 317 316 318 317 316 317 319 318 317 318 320 320 322 318 317 322 320 321 324 320 321 322 318 317
316 315 314 314 313 312 311 310 310 311 311 310 310 309 309 308 307 306 306 306 307 307 308 309 310 312 315 315 317 317 317 316 314 312 312 314 315 315 316 315 316 317 317 317 315 315 316 316 317 319 317 317 318 317 317 317 317 318 320 319 316 316 318 317 317 317 317 317 317 317 318 319 319 320 320 319 322 320 317 322 322 321 322 321 321 321 320 318
316 315 314 314 313 313 312 311 310 310 311 310 309 309 309 307 306 306 306 306 307 307 309 311 311 314 315 312 315 318 316 315 313 312 314 315 315 316 315 315 316 316 316 316 314 314 316 317 319 320 317 319 318 315 317 317 318 319 318 320 319 317 320 319 317 317 316 316 318 316 315 321 323 320 318 319 322 321 319 321 321 323 324 323 321 319 320 317
315 315 314 314 313 313 312 311 309 310 310 309 309 310 309 307 306 306 306 307 308 308 310 311 312 314 313 311 315 317 316 314 312 314 315 316 315 315 315 315 316 315 316 315 315 316 317 317 317 318 317 318 318 315 317 317 318 320 316 322 324 320 321 321 317 317 316 316 319 317 316 321 323 319 318 320 322 321 320 322 322 323 323 324 323 321 321 317
315 315 314 314 313 313 312 310 309 310 309 309 310 310 308 306 305 305 306 308 309 310 311 312 313 314 312 313 317 315 313 313 314 315 316 317 316 315 315 315 315 315 315 315 316 316 316 317 319 320 317 316 318 318 319 318 318 320 318 322 324 320 322 322 318 318 318 316 317 317 318 321 321 321 320 319 320 321 322 323 322 322 322 322 322 321 322 319
315 314 314 314 313 312 311 310 309 309 309 309 310 309 308 307 306 306 307 309 311 311 312 314 314 314 313 315 317 315 313 315 316 314 316 317 316 316 315 315 315 315 315 315 317 317 316 319 319 319 318 317 322 326 323 320 321 322 321 322 323 320 320 321 319 319 320 318 316 315 318 321 320 321 322 319 320 320 321 323 322 321 320 320 320 320 322 321
314 314 313 313 312 312 311 309 308 309 309 310 309 310 310 310 308 309 309 311 313 312 313 316 313 311 312 312 316 317 316 317 315 314 316 317 317 316 315 316 316 315 316 316 316 317 316 318 318 316 319 320 322 328 325 318 320 321 318 319 324 323 319 320 320 318 320 319 317 317 317 320 321 320 320 321 321 320 321 322 323 322 320 319 319 319 320 321
314 314 313 312 312 311 310 309 308 309 309 309 310 312 313 313 312 313 313 313 313 310 311 314 312 311 311 310 315 318 317 317 315 314 316 316 316 316 317 317 314 315 317 317 317 317 318 319 323 321 318 319 318 325 331 325 324 325 319 318 321 320 318 321 321 318 319 318 317 318 317 319 320 318 317 318 320 320 321 321 322 322 320 320 319 320 320 321
314 313 313 312 312 311 310 308 308 309 309 309 312 314 314 315 315 315 315 315 312 308 308 311 311 313 314 314 317 318 317 316 314 314 315 316 316 316 318 316 317 318 316 319 317 315 322 324 324 324 318 318 318 321 331 331 326 327 327 326 324 318 316 319 319 317 318 318 318 318 317 318 317 317 316 316 318 319 319 319 319 319 318 318 317 318 320 321
314 313 312 312 311 311 309 308 309 310 310 311 314 314 313 315 317 316 316 317 314 310 312 313 312 316 319 318 318 317 316 315 315 315 315 315 316 316 317 316 321 321 318 325 319 315 330 329 323 330 325 322 321 320 324 323 320 323 327 327 323 319 316 318 319 318 317 317 321 322 319 318 316 315 316 315 316 317 317 317 317 317 316 316 317 318 320 321
313 312 312 312 311 309 309 309 309 310 311 312 315 316 315 312 314 315 315 315 311 312 315 315 314 317 319 318 316 315 316 316 316 316 315 315 316 316 316 318 321 321 320 325 322 321 332 329 327 335 330 321 319 319 319 319 319 325 327 323 322 323 318 317 320 319 317 317 323 325 320 319 317 314 315 315 315 316 316 316 316 316 316 316 317 319 320 319
312 312 312 311 310 309 309 309 310 310 311 313 314 318 319 314 312 313 312 310 308 311 314 314 314 317 316 314 314 316 318 319 318 317 316 314 316 317 318 320 321 322 319 320 323 324 326 329 333 332 324 319 318 319 321 323 326 329 328 323 324 326 320 318 321 319 318 318 324 328 321 318 318 315 314 314 315 315 315 316 316 317 317 316 317 319 320 320
311 311 311 311 309 309 309 309 310 310 311 313 314 317 319 316 313 313 312 309 308 312 315 315 316 318 317 314 315 317 317 319 320 320 317 314 318 319 318 319 319 321 320 320 324 322 320 326 329 324 320 320 318 321 325 324 326 329 328 324 326 328 321 318 320 319 319 318 322 327 323 319 318 317 318 316 314 315 315 317 318 319 318 318 318 319 320 323
311 311 311 310 309 309 309 309 310 310 311 312 313 316 318 316 313 313 313 311 312 315 315 314 316 319 318 315 315 318 316 317 321 320 315 315 318 317 318 318 318 320 320 321 325 323 322 322 321 320 323 325 321 321 328 324 320 326 331 330 328 325 320 320 321 321 323 322 322 322 320 325 328 325 330 328 318 316 316 317 318 319 319 319 320 322 323 325
311 310 310 309 308 310 309 310 310 310 311 312 313 316 317 315 313 313 314 312 314 316 313 312 315 316 316 314 315 319 316 316 320 318 314 315 317 317 318 316 315 319 320 320 321 322 322 319 318 320 322 329 326 321 328 327 318 319 326 328 328 326 325 330 331 327 326 324 322 319 317 330 337 329 335 340 330 325 321 318 319 318 317 319 321 323 324 326
311 309 310 309 309 310 310 311 310 310 312 312 313 316 316 314 313 313 316 316 315 315 311 310 313 313 314 315 317 318 315 315 317 315 314 315 315 316 317 316 316 318 319 319 319 319 320 320 324 326 326 330 328 321 324 327 321 316 319 325 332 336 333 335 334 324 322 321 319 320 318 325 328 319 325 335 335 335 328 323 324 320 318 322 323 323 325 327
311 309 310 310 309 309 310 312 310 311 314 313 313 316 314 313 312 312 318 319 316 313 311 310 309 310 315 316 316 315 314 316 316 314 315 315 315 314 316 317 316 316 318 321 321 318 320 323 325 329 332 331 326 322 322 325 324 319 322 328 337 337 330 333 332 323 325 325 323 328 323 321 324 321 320 321 324 332 331 327 327 322 322 324 323 324 328 329
311 310 311 310 309 309 311 313 311 312 314 312 312 314 314 312 311 312 316 316 314 313 311 310 309 310 315 314 313 314 314 316 318 316 314 314 315 315 317 317 318 319 319 321 322 319 321 327 327 328 331 331 329 328 326 327 326 323 324 329 336 334 332 336 334 328 330 324 323 330 322 318 327 328 321 316 318 325 328 327 325 324 326 325 324 326 328 331
311 311 311 311 310 310 312 313 312 313 314 314 314 313 312 311 310 314 316 312 313 313 311 311 310 313 316 314 313 314 314 316 319 318 315 314 314 314 316 317 319 319 316 321 327 322 321 323 325 327 328 329 327 325 327 330 326 325 326 330 335 335 334 335 332 332 332 323 323 330 324 315 317 321 320 315 316 322 322 323 323 323 326 327 329 333 332 332
312 311 310 311 311 310 312 313 312 315 314 313 315 313 311 313 311 311 311 310 315 316 310 311 313 315 317 315 313 314 316 319 319 317 315 316 316 315 315 314 319 322 320 327 330 323 319 317 318 323 323 326 326 321 324 328 324 325 330 335 336 335 337 337 335 334 329 323 327 331 327 316 312 320 326 320 320 323 319 320 322 322 324 329 335 336 335 334
313 311 310 310 312 311 312 313 313 315 314 312 314 312 312 317 315 310 308 311 319 317 311 311 315 316 315 314 315 315 318 319 317 316 317 317 317 318 316 314 322 327 324 327 325 320 322 319 318 320 318 322 327 322 323 328 329 330 334 334 327 330 339 337 334 332 324 324 333 332 327 318 312 320 326 325 329 325 319 321 324 323 322 329 338 336 333 334
313 312 310 310 312 311 312 314 313 314 314 312 314 313 313 316 315 313 311 310 316 317 314 314 316 315 313 314 315 316 320 321 317 316 319 320 319 318 317 317 323 325 321 324 323 321 325 324 320 318 317 320 326 325 323 326 331 331 329 327 318 320 332 332 331 332 327 326 328 326 324 319 316 320 322 326 331 325 321 323 326 325 322 330 339 334 330 332
314 313 311 310 311 311 312 313 313 313 313 312 314 315 316 314 311 313 314 311 315 318 316 316 316 315 314 315 315 316 319 321 317 316 318 320 319 317 318 319 321 323 325 325 324 322 325 325 321 317 318 320 322 324 321 322 328 326 323 325 321 320 325 326 327 327 327 328 324 320 322 322 324 326 324 323 324 325 326 324 326 327 323 332 340 333 329 333
315 315 313 311 311 311 311 312 313 312 312 314 314 313 315 313 310 311 312 312 318 319 316 316 317 315 314 314 315 315 317 318 317 317 319 319 318 317 318 317 317 324 330 324 322 323 323 325 324 318 319 322 321 321 323 325 324 323 325 324 322 324 326 326 326 324 325 330 325 319 323 327 326 324 323 323 322 324 325 324 327 331 329 336 339 332 329 333
316 315 314 313 312 312 311 311 312 311 312 314 312 311 313 311 311 311 310 314 322 322 317 316 316 315 315 315 315 315 319 321 317 317 320 318 318 318 317 317 315 321 325 319 318 320 317 322 326 320 319 322 321 321 324 325 319 321 326 323 322 327 326 324 326 329 328 326 325 323 326 330 325 320 321 323 323 325 325 325 326 327 328 332 338 338 334 335
316 315 315 314 313 313 312 312 312 311 313 315 311 311 312 310 310 311 312 318 323 321 316 315 315 315 315 318 317 313 318 323 319 318 320 317 317 317 316 316 315 316 317 316 321 322 317 320 322 319 318 319 321 323 323 322 319 320 323 325 329 328 324 323 322 322 322 319 321 321 323 325 321 318 319 319 321 323 323 324 323 323 325 325 330 337 339 341
316 316 315 315 314 313 313 313 312 311 315 316 310 310 311 309 310 313 317 321 320 317 316 316 317 316 315 319 320 315 317 322 319 318 320 318 318 319 316 316 316 315 314 314 320 324 324 324 320 319 320 318 318 321 322 322 321 322 324 326 328 324 324 329 326 322 320 319 322 319 316 318 317 318 321 320 319 320 320 319 318 321 325 323 324 331 337 340
315 315 315 315 315 314 313 313 312 313 317 316 312 311 311 310 310 313 319 320 317 317 318 319 319 317 316 318 319 317 317 320 319 318 320 318 318 319 316 317 318 315 314 314 316 321 323 322 318 317 320 320 319 320 322 320 319 324 327 323 325 327 327 328 325 322 320 318 323 322 316 315 315 317 319 316 317 321 320 318 317 318 322 324 327 329 331 333
314 315 316 316 315 314 314 313 312 314 317 316 313 312 311 310 310 314 320 318 317 318 318 323 323 317 317 319 319 319 317 318 318 319 319 317 318 320 316 316 319 316 313 314 316 321 321 317 317 317 317 319 319 320 323 322 319 323 323 319 324 329 329 327 323 323 322 319 321 321 316 317 321 321 319 316 318 319 318 319 321 320 321 326 328 329 331 335
314 314 315 316 315 314 314 313 313 315 316 315 313 311 310 309 309 313 320 318 318 318 318 322 322 318 319 319 319 319 318 318 319 318 318 317 317 319 316 315 319 317 314 313 316 321 319 315 317 318 316 319 321 321 322 321 321 323 322 322 324 322 323 326 324 324 327 325 323 321 317 321 326 325 322 320 319 319 319 322 325 323 324 329 328 328 334 340
314 314 314 315 315 314 314 313 313 315 315 314 314 311 311 314 314 314 317 318 318 317 318 322 320 319 321 319 318 319 318 319 319 318 318 316 315 317 317 317 319 318 316 315 316 319 317 316 321 322 320 322 323 320 319 319 320 321 321 322 323 321 322 322 321 323 325 327 329 324 317 318 323 323 322 321 322 324 322 321 325 327 327 330 331 333 339 343
313 314 314 315 315 314 314 313 312 312 313 313 314 313 314 318 320 317 314 316 319 317 318 321 319 318 319 319 319 319 318 319 320 319 318 317 316 317 318 319 320 318 317 317 316 318 320 323 325 324 322 321 319 318 319 320 320 320 321 321 320 322 324 322 323 326 325 327 330 325 319 317 319 325 327 325 328 331 329 325 329 333 334 336 339 341 338 336
313 314 314 315 314 314 314 312 309 310 313 312 313 315 316 317 320 320 316 316 318 318 318 318 317 317 318 320 319 318 318 318 318 319 319 317 316 318 320 321 321 319 317 318 317 317 321 321 320 320 319 319 320 320 321 322 322 321 323 322 321 323 325 327 330 329 328 329 326 323 322 319 321 330 329 327 328 327 327 327 326 330 337 340 340 337 333 333
312 314 314 314 314 314 314 312 310 310 311 311 311 313 314 314 317 320 321 320 319 318 317 316 317 318 319 321 320 318 317 317 318 318 319 319 319 320 322 321 321 319 317 319 318 316 318 320 320 319 318 321 325 324 322 322 322 324 327 325 321 322 323 324 325 322 323 328 325 322 322 318 325 333 330 333 335 326 325 327 323 325 332 333 334 337 337 338
312 313 314 314 313 314 315 313 311 311 310 310 310 311 312 313 315 316 318 320 319 319 318 317 317 318 319 320 319 318 318 317 319 319 318 319 320 322 324 323 320 318 318 320 317 315 321 322 319 318 317 318 323 323 323 323 321 322 328 326 320 321 320 319 321 321 320 323 322 321 319 316 322 326 323 331 334 326 329 334 327 325 331 334 340 343 340 338
311 312 313 313 312 313 314 312 311 311 310 310 310 311 311 313 314 314 314 316 317 317 318 321 319 316 319 321 319 319 318 317 320 322 319 319 322 323 323 323 320 318 321 323 318 319 326 323 315 316 317 316 317 320 322 323 323 321 324 324 321 321 320 318 321 322 319 318 319 319 319 316 318 319 320 327 330 328 332 336 329 325 329 334 334 335 337 338
309 311 312 312 311 311 311 311 311 311 310 310 311 311 311 311 313 314 314 315 316 316 317 321 320 316 318 321 319 319 319 316 319 322 319 319 324 323 320 321 321 319 322 322 318 322 326 321 316 316 317 315 316 321 322 322 322 322 321 322 321 321 320 319 320 319 318 318 318 318 318 317 316 316 318 321 324 325 326 328 328 326 328 331 330 331 334 334
308 310 311 312 312 311 310 310 311 310 309 310 311 311 311 311 312 313 314 315 316 316 316 319 321 320 320 320 318 320 322 318 317 319 319 320 324 321 318 320 320 320 322 319 316 321 324 322 320 318 316 316 316 321 324 322 320 320 320 320 321 320 320 320 319 318 318 319 318 316 318 319 316 315 317 318 318 319 319 321 323 323 324 326 326 326 326 325
307 307 309 311 312 312 311 311 311 310 309 309 310 310 311 311 311 312 314 315 315 315 316 318 320 321 321 320 318 318 321 321 319 318 319 322 324 322 320 321 320 318 321 320 317 320 322 323 323 319 316 318 316 318 323 322 319 319 320 319 319 319 320 319 319 318 318 319 318 317 319 319 316 316 320 322 320 318 320 321 320 320 321 322 322 322 322 321
306 306 307 310 311 311 312 312 312 311 309 309 310 310 310 311 312 311 312 314 315 316 316 317 318 319 319 319 319 317 318 321 320 319 321 322 323 322 321 323 323 320 319 320 318 317 318 322 325 320 317 319 317 317 321 323 321 321 322 321 318 317 318 318 319 319 319 319 319 319 320 319 316 317 321 322 320 319 319 320 319 319 319 319 321 321 320 320
303 304 306 309 311 311 312 313 312 311 310 309 310 311 310 310 311 311 312 313 315 315 316 316 316 317 316 316 318 319 321 323 324 323 323 322 321 322 322 322 323 322 320 320 320 318 317 322 324 321 319 319 317 318 320 322 321 322 323 323 319 317 317 317 319 319 319 320 320 320 320 318 316 318 320 319 319 320 321 319 319 320 320 321 321 319 317 317
302 303 304 306 308 310 311 313 312 311 311 309 309 310 311 311 311 312 312 313 314 314 315 315 315 316 317 316 316 317 319 321 321 321 321 320 320 321 322 321 320 320 320 320 321 321 320 321 323 322 320 318 318 321 321 321 321 321 320 320 319 318 317 317 318 318 318 318 319 320 319 316 316 320 321 319 319 321 321 318 315 316 320 320 318 316 315 315
Wind_Speed
12 11 10 10 10 9 8 7 6 5 5 4 6 8 9 9 10 11 11 11 10 10 9 8 6 5 4 3 3 3 3 3 3 3 3 2 3 4 5 5 4 4 4 4 4 2 1 3 3 3 2 0 1 0 1 1 2 4 3 3 1 2 0 3 3 5 5 5 6 7 5 8 4 1 1 2 5 3 4 4 3 7 7 7 11 20 28 27
12 11 11 10 10 9 8 6 5 5 4 4 5 8 9 9 10 10 11 11 11 10 9 8 6 5 4 3 3 2 3 2 1 3 5 5 4 5 5 4 4 5 5 5 3 1 2 3 4 4 4 1 1 1 1 1 2 3 3 3 2 3 0 4 2 2 4 7 7 7 6 6 6 5 3 2 1 3 5 2 3 6 6 8 13 20 24 26
11 11 11 11 10 9 8 6 5 5 4 4 5 6 8 9 10 10 11 11 11 10 9 8 6 5 3 3 3 2 1 2 1 3 6 7 6 5 4 4 4 5 6 5 2 1 2 5 7 3 4 0 2 2 2 1 1 3 4 4 3 5 2 5 4 2 2 9 9 6 5 3 4 5 3 4 4 3 5 4 3 3 4 6 9 16 21 22
11 11 11 11 10 10 8 6 5 5 4 4 4 6 7 9 9 10 10 11 10 10 9 8 6 4 3 3 2 1 2 4 1 3 7 9 7 5 4 4 4 5 6 5 3 3 5 8 5 2 3 1 2 2 2 1 1 1 3 4 4 3 2 4 4 5 1 9 9 6 6 4 4 4 3 5 5 2 6 7 8 9 10 10 9 13 18 19
12 11 11 11 10 10 8 6 5 5 4 4 4 5 7 8 9 10 10 11 10 10 9 8 6 5 3 2 2 2 4 3 2 3 8 9 7 5 4 4 4 4 5 4 3 3 6 6 2 3 2 1 0 2 2 3 3 2 2 4 3 2 3 4 4 5 2 7 7 6 6 4 4 3 4 7 6 5 6 7 10 10 11 15 13 14 16 15
13 11 10 11 10 10 8 6 6 5 4 3 3 5 6 8 9 10 10 10 10 10 9 8 6 5 3 2 3 3 4 1 1 5 8 8 6 5 4 4 4 4 4 4 2 2 3 3 2 2 1 2 2 3 2 2 4 3 0 1 3 2 4 2 3 5 3 8 6 4 3 2 5 1 3 7 6 7 6 6 8 8 12 19 17 16 14 13
14 11 10 11 10 9 8 6 6 5 5 4 4 5 6 8 8 9 10 10 10 10 9 8 6 5 3 3 3 2 2 2 3 7 8 7 6 5 5 4 4 4 5 3 1 1 1 0 1 3 2 1 3 3 2 1 5 5 1 1 3 4 3 1 0 4 5 8 2 2 3 2 5 2 0 3 8 7 6 5 7 8 14 18 15 14 14 15
15 13 11 11 10 9 8 6 6 5 5 4 4 5 6 8 9 9 10 10 10 10 9 8 6 5 4 5 4 3 1 3 6 9 8 7 5 5 6 5 5 4 3 2 1 2 2 1 3 3 2 2 4 3 2 4 5 3 3 2 2 2 0 1 2 4 6 4 1 4 3 2 5 4 0 5 9 6 6 5 8 10 13 14 12 13 13 13
16 15 13 12 11 10 8 7 6 5 5 4 5 5 6 8 9 8 9 10 10 10 9 8 6 5 6 5 4 2 2 4 10 11 8 6 5 5 5 5 5 2 1 2 1 3 3 2 3 3 3 3 4 3 2 5 1 2 5 4 3 2 2 2 3 3 3 2 4 5 2 4 3 2 2 8 9 6 6 6 7 9 10 10 10 12 12 12
18 17 15 14 14 11 8 7 8 6 4 5 5 6 6 7 8 8 9 10 10 10 9 8 6 5 6 3 4 2 3 6 12 11 8 6 6 5 5 4 4 2 2 2 2 4 3 3 3 2 3 2 4 2 2 5 2 2 6 6 5 5 3 2 2 0 1 2 4 5 2 6 3 1 3 8 7 6 7 6 7 8 9 10 9 10 13 13
19 18 16 14 14 13 9 8 8 7 4 6 6 6 6 7 8 8 8 9 9 10 9 7 6 6 6 4 4 3 3 8 12 11 8 5 5 5 5 4 3 4 4 4 3 3 3 2 2 1 1 2 3 2 3 3 3 5 8 6 3 4 1 2 4 2 1 2 2 5 1 5 3 1 7 9 5 5 9 7 7 8 8 9 9 9 11 13
20 18 15 14 13 13 12 10 8 7 5 6 7 6 6 7 8 8 8 8 9 9 7 6 6 6 5 3 2 4 4 8 10 9 7 4 5 6 5 3 3 3 2 4 4 3 4 0 2 3 1 2 3 2 1 2 4 6 7 5 1 3 2 2 3 3 2 1 2 4 3 6 1 6 10 7 3 3 8 8 7 8 7 7 8 7 8 13
20 18 16 15 13 13 12 11 9 8 6 7 7 6 6 7 7 7 7 8 8 7 6 5 6 6 4 1 2 3 5 10 10 9 8 6 7 6 6 4 3 3 1 5 6 5 4 2 4 6 2 4 3 1 2 2 4 4 4 5 2 4 3 6 1 3 4 1 2 4 1 7 6 10 11 6 3 4 7 8 7 7 7 7 7 7 7 11
20 19 17 16 15 13 12 11 10 8 7 8 7 6 7 7 7 7 7 7 6 5 5 5 6 5 2 1 1 2 6 10 10 9 9 8 8 8 6 5 4 3 3 6 7 5 4 2 5 6 2 4 3 1 3 4 3 3 2 2 3 3 4 6 1 5 4 1 1 6 2 7 8 11 10 5 7 7 6 7 7 7 6 6 7 7 8 9
20 19 18 17 15 13 13 12 10 8 7 7 7 6 6 6 6 6 7 7 5 5 5 5 7 5 2 2 0 4 8 9 9 9 9 8 8 7 5 6 6 5 5 6 6 5 4 3 5 5 1 1 3 4 4 3 3 3 3 3 2 3 3 6 1 6 6 2 1 6 2 7 8 10 8 3 6 8 7 7 7 7 8 7 7 7 7 8
20 18 17 17 15 13 14 12 9 8 7 7 7 6 4 5 6 7 8 8 7 7 7 5 7 6 2 1 2 5 6 5 8 9 8 8 7 6 6 7 5 5 5 4 5 5 5 5 3 2 2 2 4 6 4 4 4 3 3 2 2 3 2 4 3 3 6 3 0 2 2 4 5 7 7 4 3 6 7 7 8 8 9 9 7 7 7 7
19 18 17 15 14 14 14 11 9 8 7 7 6 5 6 7 8 9 9 9 8 8 6 3 5 5 1 1 3 3 4 5 8 10 8 7 8 8 7 4 3 3 3 3 3 3 4 5 1 1 2 3 3 5 5 2 3 4 1 2 4 4 4 2 3 3 4 5 2 3 3 6 8 7 7 6 3 5 7 8 9 9 9 9 8 7 8 8
18 17 17 16 15 15 14 11 9 8 8 7 7 7 8 10 10 9 9 10 8 5 1 2 3 3 2 2 3 3 6 8 9 10 9 8 8 8 4 2 3 3 3 4 3 3 3 3 2 2 3 2 2 5 4 3 4 3 3 2 3 2 3 3 3 3 4 4 2 3 4 9 12 10 9 8 6 7 9 9 9 10 10 9 8 7 8 8
18 17 17 16 15 15 14 11 10 8 8 8 9 11 11 10 8 6 6 7 6 4 2 3 4 3 2 4 4 5 9 11 9 8 8 7 7 6 3 2 3 4 3 2 2 2 2 3 4 3 1 3 3 5 6 7 7 7 5 5 3 2 2 3 2 2 4 4 4 6 6 9 10 11 10 9 8 8 10 9 8 10 9 9 8 7 8 9
17 17 17 16 14 13 12 12 11 9 9 11 11 10 8 6 4 2 2 2 3 2 2 4 5 3 1 2 5 10 12 9 5 5 6 6 6 5 2 3 5 5 2 3 1 0 4 4 1 3 5 6 6 7 7 5 6 7 5 4 3 3 2 4 2 2 2 3 6 7 7 9 10 11 11 9 8 9 11 10 10 11 10 9 8 8 9 10
16 16 16 15 13 12 12 13 11 10 11 12 11 6 3 5 4 3 3 2 6 3 2 2 4 3 3 7 11 12 8 4 2 2 7 6 4 5 1 2 5 3 1 4 3 2 5 4 4 6 7 7 6 6 6 4 6 6 5 5 3 0 1 3 1 2 3 2 5 4 4 11 11 10 10 9 9 11 13 12 12 12 11 9 8 10 11 9
16 15 15 14 12 13 13 13 12 12 12 11 8 3 2 2 4 7 7 1 6 3 2 1 4 4 3 9 13 7 4 3 2 1 6 6 3 3 2 3 5 2 1 4 4 4 5 1 7 8 6 4 3 5 8 6 6 5 4 5 2 2 1 3 3 3 2 2 4 5 5 11 14 12 10 11 11 13 12 10 11 12 11 11 9 10 9 8
16 15 15 13 12 14 13 13 12 12 12 10 8 5 1 1 3 8 7 4 2 2 2 2 3 3 2 4 8 4 4 4 3 3 7 6 3 3 4 4 5 4 2 4 5 4 2 4 8 5 4 7 6 5 8 6 5 4 4 5 1 3 1 1 4 3 2 1 3 6 6 9 12 11 10 11 11 12 11 9 10 10 12 13 10 7 8 9
17 15 14 12 13 14 13 13 12 11 13 11 11 10 5 2 3 7 4 3 2 2 1 2 2 4 4 3 7 6 2 3 4 5 8 8 4 3 4 5 5 4 3 5 7 6 4 6 3 3 6 7 5 4 7 6 2 1 3 5 3 2 2 2 2 3 3 4 3 5 6 6 6 7 8 7 4 8 9 9 11 12 12 10 8 6 8 9
18 15 14 13 15 16 14 13 11 11 12 9 12 12 7 3 2 6 3 2 2 1 2 3 1 4 6 5 6 6 2 1 1 4 10 10 6 3 3 3 4 4 6 6 7 4 5 5 1 5 5 6 7 3 3 6 2 3 1 4 6 5 4 2 4 4 5 5 3 3 4 6 5 5 7 6 4 6 5 7 13 14 11 8 7 9 8 8
18 15 16 16 16 18 15 8 10 12 9 8 12 11 6 2 2 4 4 4 2 2 2 4 2 6 9 5 5 4 3 1 3 2 9 7 3 3 3 2 2 3 7 5 4 2 2 1 4 6 5 7 7 2 3 6 5 1 3 3 5 7 6 5 5 5 2 3 4 3 1 6 6 5 8 8 6 8 5 6 12 11 8 7 8 8 8 8
19 15 17 17 19 21 12 4 12 14 6 7 12 10 6 4 3 4 5 5 3 2 5 2 0 7 9 6 7 5 3 4 1 3 5 4 1 3 3 4 2 2 3 4 2 2 1 3 5 5 6 6 5 2 3 6 7 2 4 2 5 8 6 4 6 3 2 3 5 2 3 4 6 6 10 9 7 8 9 10 12 8 7 8 8 8 8 8
19 16 17 18 21 20 9 7 17 13 1 4 12 11 7 5 4 4 6 2 2 2 4 2 1 6 6 5 6 5 3 5 5 1 1 3 1 4 3 5 6 5 2 6 4 4 1 5 4 5 5 3 4 3 4 6 6 4 4 4 6 7 6 5 6 2 1 2 6 4 3 2 7 6 5 5 5 7 11 12 11 8 8 8 7 8 5 4
19 18 18 19 20 17 7 7 13 8 2 6 12 11 7 5 4 4 4 2 1 1 2 2 3 4 4 5 3 2 2 2 3 3 1 3 1 3 3 5 6 7 2 5 6 3 1 4 6 6 5 4 4 2 2 5 4 4 3 6 5 5 5 5 5 3 3 3 4 4 4 2 6 4 2 2 3 8 11 10 9 8 8 8 6 4 2 3
21 20 20 20 20 18 9 3 6 7 4 5 10 12 8 4 3 5 3 4 2 1 0 2 3 4 7 8 3 2 3 2 1 2 2 1 2 5 2 1 4 6 3 6 4 1 2 0 2 3 3 5 5 2 1 3 6 5 5 6 6 6 5 4 3 4 3 4 6 8 8 3 4 4 3 3 4 8 8 6 8 8 7 6 3 3 5 5
22 20 23 23 20 18 10 3 6 9 5 5 11 12 7 3 3 5 5 3 2 2 2 1 2 6 13 13 6 3 4 3 1 5 3 1 2 3 1 1 4 4 2 4 3 3 5 3 0 1 1 4 6 4 4 4 5 6 5 5 4 4 5 5 5 4 1 5 7 7 5 5 5 5 2 5 6 5 7 6 8 7 6 5 4 5 5 6
24 21 23 24 20 17 10 2 4 9 6 8 12 8 5 4 1 4 4 2 2 4 5 4 4 7 12 11 7 5 5 2 3 5 5 4 3 3 3 5 4 4 1 3 1 3 3 2 2 2 2 3 6 5 4 6 5 5 5 6 4 2 3 3 3 0 2 6 6 4 1 3 7 6 5 8 8 5 7 7 8 7 5 6 5 5 5 5
25 23 23 23 21 19 12 5 4 8 8 8 8 4 5 5 6 7 6 3 3 4 5 6 6 8 10 8 6 6 5 3 4 4 3 5 5 5 4 4 6 4 3 5 4 2 2 5 2 1 3 2 6 6 3 1 0 4 5 5 5 3 1 3 3 1 4 5 4 2 1 3 5 4 8 10 9 7 7 7 8 7 5 7 6 6 5 5
23 25 24 23 22 20 16 7 4 8 10 6 5 4 4 6 7 9 9 5 2 3 3 6 9 10 10 8 7 7 4 2 6 6 4 5 5 6 5 5 5 3 4 4 4 5 4 4 3 5 3 4 7 6 7 6 4 5 5 6 6 5 5 4 4 3 4 4 4 3 1 3 2 3 7 8 7 7 5 7 7 5 4 4 4 4 5 5
23 25 25 24 22 20 19 13 4 7 10 5 4 6 7 8 7 8 9 5 2 2 4 7 11 10 8 4 4 8 5 2 6 6 5 7 6 7 6 6 8 5 5 5 3 3 4 5 5 2 2 8 8 4 5 7 2 3 3 5 3 5 5 3 3 6 4 1 3 2 3 5 4 6 8 6 6 7 6 8 8 8 8 3 5 5 6 6
24 26 25 23 23 21 20 17 10 8 7 5 5 6 8 8 6 5 6 5 4 5 9 7 6 6 6 3 4 8 3 3 7 5 4 5 4 6 8 6 9 9 7 6 3 2 3 4 4 3 2 4 5 2 3 4 2 2 3 4 5 4 7 3 3 0 3 2 4 2 5 6 3 7 8 4 7 8 8 9 9 9 11 6 5 6 6 6
20 21 18 20 24 24 20 17 14 11 6 4 7 7 7 8 4 3 4 6 6 9 11 6 3 5 6 4 5 9 4 3 5 5 4 3 2 6 8 5 7 12 10 6 3 3 5 1 4 2 1 3 2 3 1 2 3 5 3 6 3 2 3 3 1 2 2 3 5 3 7 6 2 5 5 1 5 10 10 11 11 10 9 8 7 6 6 6
12 10 9 16 26 27 22 19 16 11 5 2 7 8 7 8 4 3 4 7 8 8 7 5 4 5 6 6 5 7 7 5 6 6 4 4 4 6 10 5 6 13 12 7 3 3 5 2 4 1 2 4 3 3 1 3 2 5 4 4 3 2 1 2 3 2 2 3 5 3 5 5 4 5 4 3 7 11 12 11 10 10 8 8 8 6 6 6
7 3 2 14 28 29 26 22 14 8 4 5 9 8 7 8 5 3 5 8 7 6 6 5 3 3 5 7 5 5 6 6 8 6 4 5 5 6 12 8 6 12 13 9 6 3 4 4 4 1 1 2 3 2 5 2 1 1 1 1 2 3 4 3 3 4 4 3 3 3 3 4 6 6 6 9 12 11 11 9 8 9 9 8 8 7 5 5
4 1 2 11 27 32 30 21 10 5 4 7 10 7 5 5 3 2 5 7 5 4 5 4 4 5 5 6 6 6 6 6 9 7 4 7 5 5 10 10 6 10 12 10 7 2 2 4 4 2 3 0 2 4 7 8 5 3 3 3 2 1 2 1 1 3 4 4 3 2 5 6 6 5 8 9 10 9 9 8 8 8 8 8 7 6 6 6
3 2 2 13 29 35 28 15 6 6 6 7 9 6 3 1 2 5 8 5 4 3 4 5 7 7 6 6 5 6 5 4 7 7 3 6 7 5 7 10 8 8 8 8 7 4 3 3 4 2 1 3 5 5 6 10 9 7 6 7 7 5 4 2 3 2 2 3 5 3 6 9 5 2 4 6 7 7 8 8 7 7 8 8 7 7 7 6
2 2 5 20 35 34 21 7 1 4 6 7 6 3 1 1 1 4 7 4 3 2 3 4 6 6 6 7 6 6 7 5 6 7 4 8 10 7 7 9 11 12 10 8 8 6 4 4 4 3 4 5 5 5 1 5 5 4 4 4 5 4 4 6 5 4 1 3 3 4 3 8 3 1 2 3 5 6 6 6 5 6 7 7 7 7 5 4
2 1 4 24 40 31 11 2 1 2 5 4 1 2 1 1 2 2 4 4 4 3 2 2 5 6 5 5 6 8 9 6 7 9 6 7 9 7 7 9 12 12 9 6 5 4 3 4 3 1 3 3 4 5 4 3 2 2 2 2 4 4 4 6 5 4 3 5 4 3 4 9 4 3 2 3 3 2 2 4 6 5 6 6 6 5 3 3
2 1 1 17 36 29 8 2 4 5 7 1 1 1 1 1 1 1 2 3 2 2 5 4 5 6 5 4 6 9 10 6 6 10 7 5 6 5 7 11 12 11 8 6 7 6 4 4 4 3 0 3 4 4 4 3 1 2 3 4 7 8 6 3 2 3 2 7 8 5 7 8 4 5 4 4 5 4 4 3 3 2 2 4 4 4 4 4
1 2 2 5 17 16 6 4 5 6 7 4 2 7 5 2 2 3 1 2 3 1 3 4 4 5 5 6 6 8 11 9 6 7 7 4 3 2 4 11 13 10 8 7 8 7 5 5 6 6 6 6 4 4 4 2 2 2 4 6 8 10 11 6 2 3 7 9 8 6 10 10 4 5 5 6 6 6 7 6 4 4 3 3 4 5 5 4
0 2 2 2 3 3 1 4 6 5 7 6 4 7 10 7 3 2 3 2 2 1 1 2 2 5 5 7 7 7 11 12 6 5 7 6 3 2 3 10 13 11 8 8 9 6 3 4 8 10 11 11 9 8 5 6 6 5 8 9 10 11 13 10 5 6 10 7 5 8 12 13 10 4 3 6 4 4 6 6 5 5 4 5 5 4 6 5
1 2 3 3 1 2 2 2 7 7 7 9 6 5 12 14 5 0 2 3 1 0 1 3 1 6 7 9 9 7 9 11 6 5 8 8 4 2 1 5 8 8 6 8 8 6 4 3 9 12 12 12 11 8 8 11 11 12 13 12 13 13 14 14 11 13 11 5 7 13 11 12 17 10 8 10 7 6 8 6 6 6 5 6 6 6 7 7
2 1 1 2 1 3 3 4 8 9 8 9 6 4 12 16 10 5 4 3 0 1 1 2 3 7 9 10 9 6 7 9 8 6 6 5 3 2 1 1 2 2 4 6 6 5 5 4 7 9 11 12 10 7 10 12 11 11 13 14 16 16 16 18 19 19 13 8 12 17 12 14 19 10 10 13 10 7 9 7 5 4 4 6 7 8 9 8
2 2 1 0 0 3 4 5 9 10 10 10 6 5 9 14 16 13 6 3 2 2 3 4 6 8 8 6 7 7 7 8 8 7 5 5 5 5 3 1 1 1 3 6 5 3 4 5 7 9 10 12 13 9 10 11 8 7 11 14 16 18 21 22 22 20 15 12 16 17 11 15 16 7 9 11 8 6 6 4 4 4 5 7 7 8 9 8
2 1 0 1 1 1 2 5 8 8 9 10 8 6 7 11 16 15 8 6 7 5 5 7 9 7 5 4 5 7 7 7 8 8 8 8 7 5 5 5 3 1 2 4 4 2 3 5 5 6 5 9 13 11 7 9 8 7 9 12 15 18 20 19 17 15 12 12 15 14 12 16 11 6 7 9 5 3 5 5 6 7 7 7 8 8 8 7
3 3 1 0 1 3 3 3 6 6 5 6 7 6 7 11 13 11 8 9 11 8 8 12 12 5 2 3 4 5 5 3 5 6 6 7 7 5 4 5 7 7 5 4 2 3 4 3 1 4 4 9 12 9 6 7 6 7 10 15 17 15 12 11 11 12 12 13 14 13 13 16 7 6 6 8 4 4 8 7 6 7 6 7 8 7 6 6
6 5 2 1 2 3 4 2 5 5 3 5 7 6 6 8 8 8 6 6 11 12 9 12 12 6 3 6 6 5 3 5 6 5 4 3 4 5 3 2 4 7 8 6 3 3 5 4 2 4 6 10 10 5 7 7 4 9 15 18 17 11 8 9 10 12 14 13 11 11 13 15 7 6 6 7 4 6 9 6 3 4 6 5 5 5 6 6
Wind_Direction
205 194 183 181 177 175 180 179 176 173 172 186 185 180 180 182 181 184 193 200 206 207 208 212 216 221 227 239 241 228 226 217 210 214 208 206 206 197 193 203 217 219 216 213 216 236 309 318 260 187 137 16 89 110 344 342 57 62 81 98 281 235 227 290 228 186 149 150 181 193 163 130 154 193 148 54 57 90 92 74 63 39 44 84 115 135 145 153
213 201 186 183 179 179 182 181 182 174 174 191 185 182 184 184 184 186 194 200 207 209 209 213 217 222 229 246 245 235 232 220 242 264 242 228 201 179 181 196 211 217 212 205 216 341 14 315 271 171 104 35 296 33 22 319 73 99 107 102 225 206 231 318 260 169 138 153 172 187 175 140 167 176 140 157 172 126 114 108 73 65 55 90 120 137 148 156
215 204 189 186 181 180 183 182 184 177 183 194 187 190 188 186 187 189 195 199 205 208 209 213 217 223 234 246 256 250 192 91 353 262 225 202 179 165 166 191 207 211 207 195 212 294 257 292 286 193 109 96 250 67 88 334 80 145 103 91 237 203 189 336 0 347 168 151 152 183 178 133 171 158 138 174 166 157 167 181 132 140 183 158 149 149 154 162
215 206 193 189 184 181 184 183 186 181 192 201 196 199 192 188 190 194 197 198 203 207 208 211 215 223 233 244 258 222 110 73 328 216 180 172 160 155 167 189 197 199 202 204 232 260 268 296 296 174 112 233 279 67 137 243 130 122 107 148 230 183 142 313 329 342 26 139 148 164 124 114 170 147 148 149 132 231 230 205 188 195 188 173 174 165 165 169
215 218 203 192 188 185 185 187 191 191 198 207 213 211 196 192 196 198 199 201 204 205 206 208 214 223 226 234 220 168 99 72 280 180 162 159 146 156 172 182 189 192 191 201 230 258 274 291 338 91 83 184 281 63 206 228 120 66 100 159 232 143 121 283 305 349 14 125 120 124 121 147 158 140 165 145 148 226 232 211 201 201 178 170 176 171 172 176
214 226 211 195 194 190 190 192 194 202 208 211 227 223 205 200 199 199 202 203 204 205 206 206 211 217 217 207 188 164 119 128 231 155 157 150 144 160 163 172 178 183 179 184 234 298 279 295 49 100 109 140 168 141 198 244 97 95 188 78 356 100 130 265 331 351 36 101 100 130 152 142 111 150 198 155 185 213 206 192 188 201 177 166 166 163 173 184
214 223 212 198 198 196 195 195 197 209 211 216 234 227 214 208 203 202 201 202 205 206 205 206 209 212 198 163 159 122 112 224 202 157 157 144 146 154 142 155 157 170 180 174 261 274 219 33 95 174 115 123 183 159 155 55 68 98 152 13 37 78 111 202 25 4 53 92 128 141 109 113 136 186 272 192 222 213 202 182 140 147 152 152 155 167 182 187
214 222 218 201 200 203 200 196 203 214 209 215 233 228 218 213 209 205 200 201 205 205 207 206 206 206 185 162 132 74 25 228 176 158 156 141 146 148 138 141 142 160 175 169 244 196 160 175 229 191 118 205 163 126 107 67 44 84 141 182 109 78 122 166 67 35 53 80 75 78 81 189 177 170 301 241 237 214 198 167 117 120 134 148 163 179 187 189
213 221 224 209 202 207 205 202 205 210 215 219 227 229 223 218 215 210 202 202 204 206 208 203 206 201 185 168 110 94 248 190 160 157 152 139 141 151 148 145 149 166 194 211 202 129 137 173 220 190 176 195 116 92 86 92 55 187 142 144 121 123 191 127 63 41 50 39 57 75 0 296 216 187 273 248 235 206 171 139 132 131 142 166 176 184 189 191
212 219 225 219 210 208 206 210 205 200 219 227 224 226 224 223 218 212 208 205 204 206 205 201 205 190 182 162 101 143 237 168 162 159 149 146 148 150 141 143 154 128 132 162 112 105 136 181 219 209 168 118 91 78 73 111 177 158 119 118 126 152 190 123 118 97 45 31 69 100 283 298 297 303 268 262 247 185 155 152 159 149 162 184 186 192 194 195
213 218 226 229 224 222 225 231 213 197 219 234 227 219 215 221 218 213 211 207 207 206 204 201 198 183 170 131 123 194 219 167 167 157 149 158 158 150 132 142 146 97 102 118 112 121 141 198 241 213 140 75 80 48 51 118 135 124 111 95 117 143 167 96 131 194 76 48 93 106 313 303 359 0 235 252 264 171 165 178 177 173 187 193 193 198 196 203
214 218 226 232 231 234 243 248 224 205 229 239 225 212 206 217 215 213 210 208 211 206 201 197 192 183 151 103 162 207 197 171 166 153 148 146 145 140 115 123 132 90 103 133 138 146 132 43 38 93 147 115 107 65 98 149 107 117 107 94 117 52 13 223 157 183 117 62 218 110 9 306 259 232 244 249 266 152 164 184 191 196 205 202 204 204 202 212
214 217 225 230 232 236 246 252 229 213 236 236 220 207 204 212 210 208 207 207 211 203 199 191 185 179 144 114 220 195 182 169 160 151 139 128 128 122 106 106 102 78 115 143 142 138 116 39 77 111 128 103 124 201 127 90 79 113 102 102 116 31 326 254 201 134 114 78 229 114 21 285 252 249 262 250 194 143 162 193 206 210 216 213 213 211 216 218
213 218 223 227 232 236 246 251 230 218 233 222 206 207 206 203 200 199 196 196 197 189 187 176 170 169 145 232 223 138 163 158 156 152 138 131 123 110 104 101 92 86 116 130 128 115 93 65 91 97 76 97 136 167 72 40 51 104 96 64 97 99 287 283 191 138 129 287 52 93 155 266 276 274 280 248 176 157 186 215 221 224 227 224 221 217 223 222
213 219 223 226 228 235 245 243 225 217 221 205 200 215 209 195 192 185 179 175 171 171 170 167 168 152 105 286 281 130 150 153 160 156 142 139 128 113 111 108 99 95 106 114 105 88 86 97 90 82 43 29 88 94 62 22 15 71 100 323 340 137 253 303 287 159 151 250 64 97 172 267 278 278 294 281 156 160 198 228 238 237 237 232 228 221 223 229
213 217 220 223 225 236 244 235 215 208 212 205 201 202 179 164 163 159 162 158 155 164 154 158 178 157 115 225 136 133 154 168 170 162 151 145 136 127 124 115 100 98 106 103 90 79 74 75 70 104 120 67 83 96 67 36 350 359 108 223 270 138 208 294 307 208 149 135 303 145 209 271 272 271 300 314 168 174 204 230 240 239 241 236 228 222 221 229
210 214 217 222 228 237 243 230 206 201 206 198 179 160 141 138 142 145 150 146 147 161 151 151 177 162 89 109 127 161 179 174 172 171 161 146 141 141 134 115 100 109 98 73 67 54 48 50 54 171 78 68 103 96 72 45 296 307 73 207 240 165 163 221 283 270 131 117 204 216 220 249 264 274 292 297 237 199 217 232 239 239 240 237 228 223 222 222
207 213 213 220 228 234 239 225 202 198 192 171 146 131 124 121 126 132 137 136 126 123 147 317 138 155 250 191 167 174 162 159 166 168 159 146 145 151 153 124 111 95 55 38 26 34 40 30 58 84 32 21 92 97 108 203 201 200 191 187 260 214 169 192 234 231 137 122 210 209 233 250 263 275 277 276 250 220 226 229 238 243 241 241 231 220 220 223
204 211 212 217 222 229 233 211 194 195 174 147 135 126 113 104 104 117 138 141 123 110 203 218 145 145 219 193 161 123 137 146 151 159 157 147 149 156 152 106 91 77 71 47 12 36 79 44 52 97 164 221 191 144 164 198 169 161 173 151 158 189 233 236 236 234 137 133 238 224 235 251 259 270 271 268 255 239 241 239 245 250 247 246 237 226 225 225
202 209 211 214 215 223 222 197 187 185 164 145 139 127 113 111 94 103 176 184 202 183 178 188 158 132 105 134 126 118 125 128 129 161 160 151 144 138 113 66 49 46 77 137 140 1 83 83 138 180 192 211 211 182 171 175 139 128 117 103 135 152 297 278 241 311 95 127 250 231 239 259 256 259 261 261 261 255 252 246 246 250 250 248 239 235 230 229
200 203 205 206 210 214 202 187 182 175 165 154 146 136 151 155 125 161 178 276 258 246 65 117 118 106 117 134 141 135 122 88 40 147 164 162 131 124 137 50 67 43 278 152 132 6 65 104 219 218 203 202 203 174 138 108 89 91 103 83 31 83 281 286 211 307 29 80 266 266 277 273 264 255 253 255 257 252 245 240 243 247 250 249 237 235 234 239
194 196 198 198 204 203 189 183 182 174 169 164 166 195 233 149 126 158 147 117 260 234 105 110 75 60 95 135 156 152 92 82 45 296 185 166 110 136 158 80 110 171 242 110 84 27 54 180 240 231 200 137 93 105 98 87 86 79 92 93 30 277 249 332 347 335 29 101 271 301 308 280 275 267 251 238 237 246 246 238 241 244 249 251 235 232 239 248
189 191 194 196 199 195 186 181 177 176 177 178 188 193 180 55 133 163 148 102 231 217 140 153 103 104 94 141 188 175 93 131 154 241 205 159 121 163 140 116 143 158 138 120 120 108 102 246 244 222 146 94 62 64 80 71 70 83 97 107 228 273 120 311 317 304 277 185 280 307 305 278 279 281 268 247 232 241 250 246 249 244 242 249 246 232 228 234
184 184 191 195 193 186 179 173 170 184 192 199 208 190 151 102 165 178 164 82 177 219 221 181 141 155 161 167 188 171 129 146 148 197 195 161 140 152 146 153 147 132 175 162 135 143 204 255 244 99 89 101 98 65 80 88 25 343 126 136 198 246 140 178 294 310 327 348 343 336 320 289 284 286 281 284 252 239 242 242 255 254 244 255 273 255 228 225
179 181 188 186 185 179 167 167 181 191 189 209 218 194 155 114 165 182 157 62 190 292 331 207 183 181 176 145 163 173 145 105 67 193 182 167 148 138 163 175 139 164 204 165 125 151 237 268 119 99 73 83 105 98 122 132 91 314 233 176 181 157 127 84 16 28 26 344 322 33 353 295 299 294 278 299 312 268 245 224 241 251 253 258 270 261 247 241
173 179 185 177 175 169 157 173 200 182 175 216 207 186 176 147 131 174 124 50 265 271 147 178 169 178 175 149 159 148 105 222 317 150 157 161 159 119 153 192 106 181 198 158 126 165 230 353 80 119 108 82 90 102 207 143 110 279 257 210 161 119 95 69 47 52 62 272 271 74 103 272 294 285 264 266 271 278 279 244 242 249 258 253 250 252 251 248
171 178 179 171 170 167 160 188 181 163 167 225 192 174 195 186 143 156 91 40 280 202 144 178 273 169 172 171 163 134 159 207 49 76 133 147 210 66 125 189 123 177 195 114 132 229 136 79 71 93 93 89 103 134 219 138 115 218 248 170 117 97 98 103 85 89 209 260 308 0 149 258 287 257 248 243 247 280 281 260 256 257 255 250 246 247 248 246
175 179 176 171 172 168 151 139 159 162 183 199 179 178 186 177 159 129 96 78 247 149 141 203 155 152 155 158 148 122 179 175 123 229 333 98 134 48 103 190 165 180 175 110 178 257 125 145 160 129 97 107 163 216 229 128 113 236 225 126 109 108 123 115 96 100 312 0 317 309 138 251 276 257 254 236 216 255 258 252 261 267 261 257 255 250 253 257
177 178 177 173 175 174 151 131 157 174 209 156 170 181 172 162 152 96 97 173 195 95 138 149 138 149 136 131 135 106 107 90 129 220 355 84 59 47 135 197 164 163 114 99 167 242 86 174 182 138 128 180 195 249 244 136 133 216 157 85 65 74 79 77 92 90 26 355 265 232 172 242 280 250 192 131 187 233 244 250 257 262 267 270 268 241 153 93
177 174 175 175 183 193 201 230 192 168 153 158 166 170 157 140 130 119 169 211 165 107 83 137 165 164 144 142 167 180 123 47 54 113 55 91 15 24 121 163 102 127 49 46 99 249 335 189 155 115 153 181 154 93 41 128 134 127 91 60 39 27 36 44 56 75 52 296 252 212 190 188 295 273 186 175 209 218 221 244 262 272 286 281 256 166 140 123
180 172 174 178 189 197 195 244 209 169 144 157 159 156 141 82 87 150 191 216 122 115 115 163 189 156 158 162 169 169 113 60 141 132 119 126 41 29 85 73 57 76 46 41 45 331 351 22 139 313 214 133 104 66 19 26 80 92 84 78 57 349 11 21 0 46 93 258 256 239 203 169 237 272 267 255 266 232 191 209 244 257 275 265 211 171 163 149
187 176 174 181 191 196 181 115 186 178 158 155 155 142 110 101 167 207 204 154 154 193 172 176 197 172 166 161 153 154 129 116 177 152 143 148 162 180 172 178 150 98 189 193 153 338 342 290 253 340 309 140 109 81 19 359 24 76 97 97 91 330 7 0 313 31 217 246 258 267 216 200 237 256 267 271 284 259 196 201 216 205 224 242 216 194 184 164
193 185 180 183 191 196 186 118 123 173 171 161 151 100 81 138 197 216 208 178 185 191 157 150 162 157 154 151 161 163 129 146 180 162 150 142 166 207 233 221 175 133 181 181 140 131 302 310 311 59 307 205 141 138 142 283 188 137 139 128 133 144 135 250 263 292 263 260 278 302 153 247 276 273 242 245 261 248 207 208 214 193 206 224 208 195 192 191
197 192 188 188 194 199 193 168 116 160 172 161 132 114 133 174 202 206 208 216 191 134 116 138 139 145 162 168 176 165 123 162 173 148 139 139 157 206 232 245 211 120 110 148 156 165 185 287 225 180 219 187 175 181 160 149 160 177 158 136 154 168 168 200 208 208 247 278 301 303 224 203 219 264 245 239 267 278 253 248 258 268 252 196 161 172 182 205
199 196 194 192 197 203 199 198 182 155 165 149 126 158 177 191 204 205 205 203 171 104 88 123 131 144 179 178 176 176 150 176 180 148 153 169 176 191 192 210 204 163 126 160 202 162 171 247 240 208 178 167 180 205 140 117 110 230 143 118 184 192 155 153 194 180 176 312 301 254 234 212 206 271 275 266 294 302 283 286 302 294 270 201 147 174 189 212
194 192 194 193 197 202 199 201 197 170 157 133 152 184 198 204 199 190 187 167 156 130 111 114 121 143 177 163 185 198 165 122 168 163 181 190 191 191 191 204 195 185 172 165 181 154 158 266 293 10 29 173 177 177 143 140 181 196 150 181 219 180 126 128 258 231 100 261 274 210 247 282 314 288 277 267 288 299 297 293 284 265 263 251 205 195 203 216
191 189 191 190 195 199 195 195 187 167 140 133 183 200 212 218 190 129 157 147 145 137 126 141 162 148 169 169 185 197 178 115 164 178 187 188 226 198 194 218 194 190 193 170 182 191 153 232 306 59 132 255 211 135 58 7 136 137 180 219 211 100 88 110 221 340 53 251 271 218 239 275 309 278 301 5 268 272 270 265 260 258 268 267 242 214 218 228
188 193 199 194 196 195 190 189 176 151 112 144 205 218 219 219 191 134 153 137 136 142 139 163 163 141 171 179 183 186 173 163 179 188 176 184 238 199 177 198 202 197 198 170 186 221 146 174 301 46 185 284 353 124 221 335 90 138 185 201 125 118 226 118 153 209 173 239 280 270 251 248 203 229 284 275 243 249 252 252 254 257 259 263 256 242 241 250
169 190 249 197 194 191 186 181 164 134 121 176 208 223 214 210 206 173 162 144 139 149 161 186 166 140 178 172 156 168 179 179 175 181 178 182 237 213 176 183 200 199 195 172 182 219 138 177 256 314 229 304 18 148 197 223 3 41 93 154 101 138 178 168 165 172 161 203 260 293 289 253 223 205 202 229 238 234 241 249 245 244 242 245 253 254 255 245
139 141 319 188 186 183 177 168 148 140 177 194 210 220 214 208 208 223 191 162 156 161 170 194 167 149 175 170 154 166 182 177 169 183 200 183 213 243 192 185 183 188 185 175 185 182 116 190 221 304 335 300 186 213 190 173 172 173 165 193 206 116 118 165 194 146 139 165 204 271 284 262 245 205 185 215 241 230 225 233 235 240 237 236 246 249 244 238
143 184 213 180 178 174 166 157 151 170 186 218 226 225 241 207 157 229 229 192 176 174 148 163 168 159 160 164 173 175 163 162 175 185 208 192 201 238 208 183 163 156 155 171 198 193 171 184 165 159 257 203 225 256 201 186 186 177 182 195 187 162 133 162 247 253 127 160 177 190 271 265 239 200 197 217 236 230 216 216 230 248 243 241 252 241 224 220
190 224 181 174 175 171 162 160 208 173 190 219 224 211 246 13 81 240 237 208 195 194 129 155 175 169 164 170 178 168 155 164 185 184 206 210 205 217 214 180 158 154 153 172 202 190 139 112 124 173 221 210 244 296 234 193 193 167 185 193 170 149 132 153 214 243 180 232 202 136 264 271 262 27 317 249 221 204 192 189 205 245 253 247 253 249 228 219
205 269 183 175 175 170 160 150 118 190 210 209 99 39 20 357 343 295 244 209 200 180 165 194 182 175 186 176 160 162 167 174 188 193 209 219 216 221 203 170 154 155 156 164 193 179 117 111 132 206 313 340 321 330 6 35 84 142 204 165 148 172 168 158 181 177 168 231 213 141 245 264 289 346 318 281 258 214 178 168 167 208 262 270 269 268 250 259
197 278 292 180 175 170 169 175 149 194 218 203 47 246 296 23 211 282 286 243 236 180 177 192 181 178 182 153 147 170 181 182 195 204 204 205 228 234 187 172 162 161 171 179 179 179 181 172 142 132 278 342 342 331 333 346 66 178 220 193 180 186 172 149 142 137 213 228 192 179 241 251 296 340 342 342 332 323 299 257 159 139 308 298 288 278 261 274
202 188 305 207 181 173 181 182 153 185 206 190 210 224 228 259 203 194 234 301 314 275 197 207 183 167 162 152 155 175 187 192 194 203 206 207 243 273 180 179 176 176 189 184 167 166 176 179 156 159 189 209 217 215 217 211 159 193 225 198 189 183 171 177 186 179 230 230 180 191 246 251 282 354 357 350 344 328 314 319 357 23 354 295 274 273 276 281
210 196 198 227 211 202 198 156 150 177 190 177 197 218 216 231 252 182 177 242 283 248 257 280 172 162 168 166 169 182 199 207 194 172 194 202 219 285 199 184 187 193 184 156 150 147 142 185 186 186 199 203 206 210 179 140 141 195 215 196 191 192 183 183 183 198 222 225 193 220 240 254 263 259 285 300 306 290 292 307 322 328 309 284 286 294 288 273
227 224 181 167 209 238 253 160 164 184 186 180 185 191 202 215 233 103 180 218 256 167 287 319 171 190 193 177 179 190 198 207 199 167 186 195 204 281 254 178 189 199 172 149 157 137 110 208 205 198 211 215 211 202 167 155 171 195 202 195 196 199 189 190 204 215 210 189 236 239 220 240 255 232 216 253 259 259 271 271 276 289 292 286 297 303 291 282
233 267 167 149 160 197 210 189 180 184 179 183 188 172 195 206 206 203 205 191 263 357 208 253 243 221 206 183 182 184 176 195 208 197 187 184 177 159 61 7 219 195 133 151 179 151 134 213 211 197 219 233 228 202 172 177 187 191 196 198 199 199 195 200 213 219 204 179 234 242 207 220 248 227 198 231 233 231 251 248 241 262 279 283 289 291 287 288
217 293 297 280 179 170 170 167 179 186 178 178 193 187 189 199 202 208 210 152 178 229 189 213 229 222 219 206 193 188 174 182 204 206 179 169 177 158 139 185 292 8 100 151 187 174 157 210 207 191 213 237 237 219 186 185 190 191 204 206 203 202 202 206 214 219 212 206 233 246 233 237 246 205 190 230 222 202 232 250 259 266 270 272 273 271 273 277
180 296 268 226 253 168 158 161 175 192 184 177 198 202 187 197 203 207 210 194 202 201 183 215 227 214 218 225 209 215 207 183 194 200 174 174 194 183 170 185 176 89 99 158 181 199 200 218 201 174 199 240 241 230 188 175 188 203 220 224 220 214 210 211 216 218 218 225 239 252 259 257 247 163 192 244 241 232 262 270 273 277 272 264 261 261 269 278
252 318 0 14 247 179 179 172 164 183 190 187 202 196 189 208 205 197 205 212 214 210 195 213 225 219 219 234 228 241 237 174 177 184 164 178 195 179 180 190 167 159 172 176 161 161 190 222 101 129 190 236 240 229 176 158 186 220 234 231 224 218 213 212 214 213 210 217 231 242 251 257 245 141 199 243 221 248 270 261 256 271 270 265 271 283 302 305
244 285 301 308 274 192 174 166 166 181 190 191 204 196 196 214 195 172 192 219 220 221 217 217 219 208 218 238 233 218 177 125 129 130 106 98 97 93 93 119 141 157 168 168 157 149 166 180 150 147 204 239 242 199 140 134 184 235 238 232 222 205 188 200 219 223 215 208 215 224 236 250 245 146 195 240 216 236 267 277 278 275 270 279 307 330 340 334